N115SB KLZU-KCHA

Flight info

Callsign N115SB
Flight time 1h 8m
Altitude 6000
Route NOTWO NELLO MADOL
Aircraft P28B/L-SFG/S

Departure

Time 2026-05-07 15:47
Airport Gwinnett County Briscoe Field (KLZU)

Arrival

Time 2026-05-07 16:56
Airport Chattanooga Metropolitan Airport (Lovell Field) (KCHA)
Time Latitude Longitude Altitude Speed Heading
2026-05-07 15:08 33.97347 -83.96868 1065 ft 0 kts 155°
2026-05-07 15:37 33.97346 -83.96868 1065 ft 0 kts 174°
2026-05-07 15:37 33.97343 -83.96869 1065 ft 1 kts 228°
2026-05-07 15:37 33.97347 -83.96878 1065 ft 0 kts 322°
2026-05-07 15:39 33.97348 -83.96902 1066 ft 5 kts 264°
2026-05-07 15:39 33.97386 -83.96944 1063 ft 11 kts
2026-05-07 15:39 33.97433 -83.96854 1056 ft 15 kts 63°
2026-05-07 15:39 33.97479 -83.96742 1051 ft 13 kts 63°
2026-05-07 15:40 33.97520 -83.96643 1049 ft 14 kts 64°
2026-05-07 15:40 33.97577 -83.96504 1041 ft 23 kts 62°
2026-05-07 15:40 33.97632 -83.96372 1036 ft 16 kts 63°
2026-05-07 15:40 33.97682 -83.96251 1032 ft 18 kts 64°
2026-05-07 15:41 33.97742 -83.96106 1022 ft 20 kts 64°
2026-05-07 15:41 33.97796 -83.95974 1017 ft 15 kts 64°
2026-05-07 15:41 33.97846 -83.95851 1008 ft 17 kts 63°
2026-05-07 15:41 33.97899 -83.95723 1001 ft 20 kts 63°
2026-05-07 15:42 33.97962 -83.95570 994 ft 22 kts 63°
2026-05-07 15:42 33.98003 -83.95433 987 ft 9 kts 90°
2026-05-07 15:42 33.98004 -83.95428 987 ft 0 kts 78°
2026-05-07 15:44 33.98004 -83.95424 987 ft 2 kts 78°
2026-05-07 15:45 33.98023 -83.95382 985 ft 7 kts 60°
2026-05-07 15:45 33.98057 -83.95337 982 ft 6 kts 54°
2026-05-07 15:45 33.98093 -83.95309 979 ft 7 kts 341°
2026-05-07 15:45 33.98128 -83.95329 980 ft 1 kts 333°
2026-05-07 15:46 33.98161 -83.95353 978 ft 8 kts 312°
2026-05-07 15:46 33.98131 -83.95459 982 ft 37 kts 244°
2026-05-07 15:46 33.97936 -83.95936 1086 ft 80 kts 244°
2026-05-07 15:47 33.97666 -83.96565 1444 ft 81 kts 242°
2026-05-07 15:47 33.97373 -83.97131 1816 ft 86 kts 242°
2026-05-07 15:47 33.97034 -83.97672 2282 ft 73 kts 238°
2026-05-07 15:47 33.96680 -83.98199 2506 ft 83 kts 240°
2026-05-07 15:48 33.96324 -83.98693 2828 ft 80 kts 239°
2026-05-07 15:48 33.95952 -83.99224 3142 ft 76 kts 236°
2026-05-07 15:48 33.95604 -83.99662 3460 ft 76 kts 239°
2026-05-07 15:48 33.95556 -84.00260 3695 ft 79 kts 297°
2026-05-07 15:49 33.95852 -84.00714 4101 ft 62 kts 301°
2026-05-07 15:49 33.96165 -84.01163 4290 ft 72 kts 299°
2026-05-07 15:49 33.96456 -84.01588 4632 ft 66 kts 297°
2026-05-07 15:49 33.96784 -84.02028 4883 ft 68 kts 299°
2026-05-07 15:50 33.97104 -84.02420 5151 ft 69 kts 300°
2026-05-07 15:50 33.97444 -84.02837 5373 ft 69 kts 301°
2026-05-07 15:50 33.97767 -84.03254 5590 ft 66 kts 300°
2026-05-07 15:50 33.98094 -84.03656 5778 ft 69 kts 300°
2026-05-07 15:51 33.98446 -84.04084 5922 ft 73 kts 301°
2026-05-07 15:51 33.98802 -84.04534 6023 ft 75 kts 299°
2026-05-07 15:51 33.99164 -84.05037 6046 ft 84 kts 299°
2026-05-07 15:51 33.99542 -84.05617 6039 ft 87 kts 296°
2026-05-07 15:52 33.99901 -84.06194 6083 ft 89 kts 297°
2026-05-07 15:52 34.00265 -84.06834 6017 ft 94 kts 294°
2026-05-07 15:52 34.00649 -84.07477 6001 ft 97 kts 299°
2026-05-07 15:52 34.01064 -84.08111 5974 ft 98 kts 300°
2026-05-07 15:53 34.01469 -84.08735 6051 ft 86 kts 300°
2026-05-07 15:53 34.01856 -84.09355 5950 ft 95 kts 292°
2026-05-07 15:53 34.02250 -84.09977 5986 ft 93 kts 296°
2026-05-07 15:53 34.02638 -84.10641 5957 ft 100 kts 294°
2026-05-07 15:54 34.03038 -84.11309 6035 ft 101 kts 296°
2026-05-07 15:54 34.03502 -84.12014 5977 ft 110 kts 302°
2026-05-07 15:54 34.03968 -84.12698 6030 ft 106 kts 297°
2026-05-07 15:54 34.04358 -84.13489 6014 ft 102 kts 292°
2026-05-07 15:55 34.04798 -84.14175 5983 ft 109 kts 302°
2026-05-07 15:55 34.05290 -84.14837 5998 ft 107 kts 300°
2026-05-07 15:55 34.05766 -84.15526 6028 ft 104 kts 298°
2026-05-07 15:55 34.06199 -84.16207 6042 ft 103 kts 297°
2026-05-07 15:56 34.06630 -84.16915 5998 ft 105 kts 297°
2026-05-07 15:56 34.07068 -84.17596 6006 ft 103 kts 297°
2026-05-07 15:56 34.07495 -84.18300 5947 ft 103 kts 298°
2026-05-07 15:56 34.07941 -84.18942 6005 ft 99 kts 300°
2026-05-07 15:57 34.08376 -84.19622 5977 ft 104 kts 298°
2026-05-07 15:57 34.08807 -84.20317 6003 ft 104 kts 298°
2026-05-07 15:57 34.09263 -84.21021 5960 ft 108 kts 300°
2026-05-07 15:57 34.09722 -84.21720 5987 ft 104 kts 297°
2026-05-07 15:58 34.10083 -84.22476 5966 ft 104 kts 290°
2026-05-07 15:58 34.10412 -84.23238 5963 ft 104 kts 294°
2026-05-07 15:58 34.10795 -84.23984 5935 ft 106 kts 297°
2026-05-07 15:58 34.11154 -84.24744 5977 ft 98 kts 289°
2026-05-07 15:59 34.11498 -84.25462 5928 ft 107 kts 298°
2026-05-07 15:59 34.11846 -84.26218 5815 ft 101 kts 284°
2026-05-07 15:59 34.12110 -84.26972 5986 ft 91 kts 291°
2026-05-07 15:59 34.12426 -84.27685 5972 ft 102 kts 292°
2026-05-07 16:00 34.12759 -84.28456 6038 ft 99 kts 290°
2026-05-07 16:00 34.13101 -84.29197 6038 ft 100 kts 293°
2026-05-07 16:00 34.13477 -84.29955 5973 ft 106 kts 294°
2026-05-07 16:00 34.13836 -84.30710 6036 ft 99 kts 293°
2026-05-07 16:01 34.14174 -84.31478 5959 ft 106 kts 294°
2026-05-07 16:01 34.14557 -84.32252 5978 ft 94 kts 292°
2026-05-07 16:01 34.14879 -84.32969 6017 ft 99 kts 291°
2026-05-07 16:01 34.15185 -84.33696 6012 ft 101 kts 292°
2026-05-07 16:02 34.15490 -84.34449 6005 ft 99 kts 290°
2026-05-07 16:02 34.15812 -84.35169 6013 ft 102 kts 293°
2026-05-07 16:02 34.16188 -84.35888 6106 ft 101 kts 296°
2026-05-07 16:02 34.16531 -84.36663 5831 ft 123 kts 295°
2026-05-07 16:03 34.16924 -84.37460 5986 ft 106 kts 293°
2026-05-07 16:03 34.17323 -84.38239 5951 ft 111 kts 289°
2026-05-07 16:03 34.17674 -84.39009 6048 ft 104 kts 291°
2026-05-07 16:03 34.18025 -84.39777 6062 ft 108 kts 291°
2026-05-07 16:04 34.18334 -84.40598 6019 ft 110 kts 288°
2026-05-07 16:04 34.18738 -84.41407 5868 ft 119 kts 297°
2026-05-07 16:04 34.19247 -84.42211 5983 ft 96 kts 299°
2026-05-07 16:04 34.19741 -84.42710 6085 ft 105 kts 314°
2026-05-07 16:05 34.20343 -84.43239 6076 ft 103 kts 310°
2026-05-07 16:05 34.20997 -84.43745 5922 ft 118 kts 319°
2026-05-07 16:05 34.21651 -84.44244 6010 ft 107 kts 316°
2026-05-07 16:05 34.22293 -84.44741 5959 ft 110 kts 320°
2026-05-07 16:06 34.22941 -84.45158 6056 ft 98 kts 318°
2026-05-07 16:06 34.23554 -84.45534 6070 ft 103 kts 316°
2026-05-07 16:06 34.24147 -84.46051 6015 ft 112 kts 306°
2026-05-07 16:06 34.24740 -84.46678 5974 ft 113 kts 311°
2026-05-07 16:07 34.25348 -84.47248 6007 ft 108 kts 311°
2026-05-07 16:07 34.25928 -84.47819 5995 ft 103 kts 300°
2026-05-07 16:07 34.26365 -84.48499 5997 ft 106 kts 308°
2026-05-07 16:07 34.26930 -84.49090 5996 ft 108 kts 309°
2026-05-07 16:08 34.27515 -84.49671 5996 ft 109 kts 310°
2026-05-07 16:08 34.28115 -84.50243 5996 ft 110 kts 311°
2026-05-07 16:08 34.28722 -84.50811 5998 ft 111 kts 312°
2026-05-07 16:08 34.29336 -84.51379 5999 ft 110 kts 312°
2026-05-07 16:09 34.29940 -84.51936 5998 ft 108 kts 312°
2026-05-07 16:09 34.30536 -84.52486 5997 ft 108 kts 311°
2026-05-07 16:09 34.31201 -84.52910 5998 ft 115 kts 330°
2026-05-07 16:09 34.31799 -84.53413 6000 ft 103 kts 305°
2026-05-07 16:10 34.32334 -84.54012 5996 ft 106 kts 307°
2026-05-07 16:10 34.32879 -84.54613 6000 ft 106 kts 307°
2026-05-07 16:10 34.33430 -84.55219 6005 ft 107 kts 307°
2026-05-07 16:10 34.33988 -84.55832 6002 ft 108 kts 307°
2026-05-07 16:11 34.34540 -84.56438 6007 ft 107 kts 307°
2026-05-07 16:11 34.35094 -84.57047 6004 ft 107 kts 307°
2026-05-07 16:11 34.35644 -84.57651 6015 ft 107 kts 308°
2026-05-07 16:11 34.36135 -84.58311 5993 ft 102 kts 297°
2026-05-07 16:12 34.36532 -84.58998 5999 ft 100 kts 298°
2026-05-07 16:12 34.36951 -84.59692 5999 ft 103 kts 299°
2026-05-07 16:12 34.37388 -84.60394 6017 ft 105 kts 301°
2026-05-07 16:12 34.37850 -84.61076 5982 ft 106 kts 302°
2026-05-07 16:13 34.38319 -84.61759 5977 ft 105 kts 302°
2026-05-07 16:13 34.38786 -84.62442 5987 ft 105 kts 301°
2026-05-07 16:13 34.39248 -84.63121 5988 ft 107 kts 302°
2026-05-07 16:13 34.39708 -84.63848 5963 ft 107 kts 300°
2026-05-07 16:14 34.40137 -84.64586 5967 ft 107 kts 297°
2026-05-07 16:14 34.40523 -84.65330 6004 ft 103 kts 294°
2026-05-07 16:14 34.40886 -84.66084 6026 ft 104 kts 294°
2026-05-07 16:14 34.41243 -84.66838 6056 ft 103 kts 293°
2026-05-07 16:15 34.41588 -84.67590 6045 ft 104 kts 294°
2026-05-07 16:15 34.42028 -84.68310 6024 ft 107 kts 302°
2026-05-07 16:15 34.42523 -84.68992 6014 ft 108 kts 302°
2026-05-07 16:15 34.42990 -84.69718 6013 ft 111 kts 299°
2026-05-07 16:16 34.43470 -84.70477 6020 ft 116 kts 304°
2026-05-07 16:16 34.44005 -84.71204 6025 ft 115 kts 303°
2026-05-07 16:16 34.44503 -84.71936 6020 ft 109 kts 301°
2026-05-07 16:16 34.44959 -84.72641 6015 ft 104 kts 300°
2026-05-07 16:17 34.45394 -84.73331 6028 ft 103 kts 300°
2026-05-07 16:17 34.45823 -84.74019 6028 ft 102 kts 299°
2026-05-07 16:17 34.46248 -84.74703 6027 ft 102 kts 299°
2026-05-07 16:17 34.46674 -84.75390 6028 ft 102 kts 299°
2026-05-07 16:18 34.46956 -84.75845 6029 ft 102 kts 299°
2026-05-07 16:18 34.47383 -84.76534 6028 ft 102 kts 299°
2026-05-07 16:18 34.47806 -84.77218 6031 ft 101 kts 299°
2026-05-07 16:18 34.48229 -84.77901 6032 ft 101 kts 299°
2026-05-07 16:19 34.48653 -84.78587 6033 ft 102 kts 299°
2026-05-07 16:19 34.49077 -84.79272 6034 ft 102 kts 299°
2026-05-07 16:19 34.49503 -84.79961 6035 ft 102 kts 299°
2026-05-07 16:19 34.49928 -84.80649 6034 ft 101 kts 300°
2026-05-07 16:20 34.50350 -84.81331 6037 ft 101 kts 300°
2026-05-07 16:20 34.50776 -84.82023 6041 ft 104 kts 300°
2026-05-07 16:20 34.51206 -84.82729 6047 ft 104 kts 300°
2026-05-07 16:20 34.51651 -84.83429 6046 ft 105 kts 300°
2026-05-07 16:21 34.52085 -84.84129 6051 ft 106 kts 300°
2026-05-07 16:21 34.52526 -84.84852 6051 ft 108 kts 300°
2026-05-07 16:21 34.52984 -84.85603 6050 ft 114 kts 299°
2026-05-07 16:21 34.53458 -84.86377 6076 ft 114 kts 301°
2026-05-07 16:22 34.53951 -84.87165 6050 ft 120 kts 301°
2026-05-07 16:22 34.54452 -84.87958 6048 ft 117 kts 299°
2026-05-07 16:22 34.54937 -84.88759 6032 ft 119 kts 301°
2026-05-07 16:22 34.55417 -84.89542 6033 ft 113 kts 300°
2026-05-07 16:23 34.55875 -84.90281 6034 ft 107 kts 300°
2026-05-07 16:23 34.56310 -84.90986 6032 ft 103 kts 299°
2026-05-07 16:23 34.56733 -84.91673 6033 ft 101 kts 299°
2026-05-07 16:23 34.57148 -84.92348 6032 ft 99 kts 299°
2026-05-07 16:24 34.57560 -84.93018 6032 ft 99 kts 299°
2026-05-07 16:24 34.57970 -84.93684 6032 ft 98 kts 299°
2026-05-07 16:24 34.58379 -84.94348 6032 ft 98 kts 299°
2026-05-07 16:24 34.58787 -84.95011 6031 ft 98 kts 299°
2026-05-07 16:25 34.59187 -84.95662 6034 ft 97 kts 299°
2026-05-07 16:25 34.59600 -84.96332 6033 ft 98 kts 299°
2026-05-07 16:25 34.60002 -84.96986 6033 ft 98 kts 299°
2026-05-07 16:25 34.60412 -84.97652 6055 ft 99 kts 299°
2026-05-07 16:26 34.60823 -84.98321 6056 ft 99 kts 299°
2026-05-07 16:26 34.61238 -84.98996 6056 ft 100 kts 299°
2026-05-07 16:26 34.61651 -84.99670 6060 ft 99 kts 300°
2026-05-07 16:26 34.62064 -85.00337 6059 ft 98 kts 303°
2026-05-07 16:27 34.62475 -85.00982 6042 ft 94 kts 304°
2026-05-07 16:27 34.62832 -85.01572 6066 ft 84 kts 305°
2026-05-07 16:27 34.63178 -85.02141 6055 ft 87 kts 298°
2026-05-07 16:27 34.63551 -85.02753 6068 ft 92 kts 300°
2026-05-07 16:28 34.63932 -85.03380 6062 ft 93 kts 297°
2026-05-07 16:28 34.64319 -85.04012 6061 ft 93 kts 298°
2026-05-07 16:28 34.64704 -85.04638 6061 ft 93 kts 298°
2026-05-07 16:28 34.65084 -85.05258 6071 ft 93 kts 298°
2026-05-07 16:29 34.65490 -85.05923 6062 ft 99 kts 298°
2026-05-07 16:29 34.65901 -85.06588 6063 ft 97 kts 299°
2026-05-07 16:29 34.66315 -85.07263 6062 ft 104 kts 298°
2026-05-07 16:29 34.66744 -85.07964 6061 ft 103 kts 298°
2026-05-07 16:30 34.67170 -85.08657 6059 ft 102 kts 298°
2026-05-07 16:30 34.67590 -85.09341 6060 ft 101 kts 298°
2026-05-07 16:30 34.68011 -85.10028 6057 ft 101 kts 298°
2026-05-07 16:30 34.68429 -85.10710 6054 ft 100 kts 298°
2026-05-07 16:31 34.68845 -85.11389 6051 ft 101 kts 298°
2026-05-07 16:31 34.69260 -85.12066 6048 ft 99 kts 298°
2026-05-07 16:31 34.69673 -85.12739 6054 ft 100 kts 298°
2026-05-07 16:31 34.70087 -85.13414 6047 ft 99 kts 298°
2026-05-07 16:32 34.70487 -85.14067 6050 ft 96 kts 298°
2026-05-07 16:32 34.70883 -85.14714 6049 ft 93 kts 298°
2026-05-07 16:32 34.71271 -85.15350 6047 ft 94 kts 298°
2026-05-07 16:32 34.71669 -85.16001 6051 ft 98 kts 298°
2026-05-07 16:33 34.72074 -85.16661 6042 ft 96 kts 297°
2026-05-07 16:33 34.72476 -85.17312 6048 ft 100 kts 298°
2026-05-07 16:33 34.72889 -85.17995 6049 ft 100 kts 298°
2026-05-07 16:33 34.73306 -85.18677 6049 ft 100 kts 298°
2026-05-07 16:34 34.73720 -85.19353 6050 ft 100 kts 298°
2026-05-07 16:34 34.74138 -85.20038 6048 ft 101 kts 298°
2026-05-07 16:34 34.74570 -85.20745 6052 ft 108 kts 298°
2026-05-07 16:34 34.75020 -85.21487 6059 ft 108 kts 297°
2026-05-07 16:35 34.75404 -85.22241 5758 ft 111 kts 294°
2026-05-07 16:35 34.75806 -85.23123 5319 ft 122 kts 300°
2026-05-07 16:35 34.76285 -85.23930 5151 ft 116 kts 306°
2026-05-07 16:35 34.76790 -85.24723 4853 ft 122 kts 303°
2026-05-07 16:36 34.77297 -85.25539 4575 ft 123 kts 307°
2026-05-07 16:36 34.77847 -85.26334 4372 ft 122 kts 308°
2026-05-07 16:36 34.78391 -85.27123 4172 ft 121 kts 307°
2026-05-07 16:36 34.78902 -85.27940 3978 ft 121 kts 305°
2026-05-07 16:37 34.79372 -85.28730 3953 ft 109 kts 311°
2026-05-07 16:37 34.80048 -85.29035 3912 ft 110 kts
2026-05-07 16:37 34.80626 -85.28467 3890 ft 116 kts 62°
2026-05-07 16:37 34.80579 -85.27481 3783 ft 125 kts 114°
2026-05-07 16:38 34.79997 -85.26751 3752 ft 121 kts 153°
2026-05-07 16:38 34.79208 -85.26580 3779 ft 113 kts 187°
2026-05-07 16:38 34.78425 -85.26644 3796 ft 111 kts 189°
2026-05-07 16:38 34.77663 -85.26729 3792 ft 111 kts 189°
2026-05-07 16:39 34.76899 -85.26827 3761 ft 110 kts 191°
2026-05-07 16:39 34.76134 -85.26910 3741 ft 109 kts 189°
2026-05-07 16:39 34.75367 -85.26954 3770 ft 106 kts 187°
2026-05-07 16:39 34.74622 -85.26995 3735 ft 109 kts 186°
2026-05-07 16:40 34.73870 -85.27029 3735 ft 108 kts 186°
2026-05-07 16:40 34.73129 -85.27042 3748 ft 104 kts 185°
2026-05-07 16:40 34.72519 -85.27374 3763 ft 95 kts 235°
2026-05-07 16:40 34.72300 -85.28073 3796 ft 87 kts 272°
2026-05-07 16:41 34.72295 -85.28832 3771 ft 91 kts 276°
2026-05-07 16:41 34.72325 -85.29615 3768 ft 93 kts 278°
2026-05-07 16:41 34.72399 -85.30366 3787 ft 89 kts 298°
2026-05-07 16:41 34.72866 -85.30853 3739 ft 91 kts 332°
2026-05-07 16:42 34.73459 -85.31075 3809 ft 88 kts 348°
2026-05-07 16:42 34.74084 -85.31035 3780 ft 94 kts
2026-05-07 16:42 34.74720 -85.30876 3826 ft 91 kts
2026-05-07 16:42 34.75360 -85.30722 3775 ft 96 kts
2026-05-07 16:43 34.75976 -85.30531 3809 ft 93 kts 13°
2026-05-07 16:43 34.76601 -85.30283 3823 ft 93 kts 16°
2026-05-07 16:43 34.77220 -85.30000 3823 ft 95 kts 18°
2026-05-07 16:43 34.77817 -85.29707 3858 ft 94 kts 16°
2026-05-07 16:44 34.78432 -85.29382 3821 ft 98 kts 16°
2026-05-07 16:44 34.79084 -85.29133 3774 ft 99 kts 12°
2026-05-07 16:44 34.79748 -85.28911 3753 ft 99 kts
2026-05-07 16:44 34.80372 -85.28807 3770 ft 84 kts
2026-05-07 16:45 34.80994 -85.28620 3600 ft 92 kts
2026-05-07 16:45 34.81577 -85.28423 3512 ft 89 kts 11°
2026-05-07 16:45 34.82183 -85.28219 3376 ft 91 kts 11°
2026-05-07 16:45 34.82794 -85.28043 3275 ft 89 kts
2026-05-07 16:46 34.83402 -85.27866 3162 ft 88 kts 12°
2026-05-07 16:46 34.83990 -85.27659 3045 ft 88 kts 15°
2026-05-07 16:46 34.84564 -85.27416 2929 ft 91 kts 14°
2026-05-07 16:46 34.85155 -85.27188 2864 ft 87 kts 14°
2026-05-07 16:47 34.85746 -85.26941 2767 ft 92 kts 17°
2026-05-07 16:47 34.86324 -85.26657 2715 ft 89 kts 18°
2026-05-07 16:47 34.86906 -85.26420 2663 ft 87 kts 12°
2026-05-07 16:47 34.87484 -85.26236 2608 ft 87 kts 11°
2026-05-07 16:48 34.88074 -85.26063 2532 ft 86 kts 10°
2026-05-07 16:48 34.88635 -85.25900 2544 ft 80 kts 13°
2026-05-07 16:48 34.89148 -85.25689 2539 ft 73 kts 15°
2026-05-07 16:48 34.89602 -85.25479 2507 ft 70 kts 17°
2026-05-07 16:49 34.90064 -85.25269 2475 ft 71 kts 14°
2026-05-07 16:49 34.90520 -85.25078 2450 ft 71 kts 12°
2026-05-07 16:49 34.90995 -85.24901 2447 ft 71 kts 12°
2026-05-07 16:49 34.91456 -85.24722 2421 ft 70 kts 13°
2026-05-07 16:50 34.91900 -85.24534 2420 ft 67 kts 13°
2026-05-07 16:50 34.92321 -85.24369 2402 ft 65 kts 14°
2026-05-07 16:50 34.92730 -85.24209 2399 ft 60 kts 13°
2026-05-07 16:50 34.93131 -85.24054 2419 ft 62 kts 13°
2026-05-07 16:51 34.93552 -85.23889 2411 ft 63 kts 11°
2026-05-07 16:51 34.93966 -85.23724 2452 ft 61 kts 11°
2026-05-07 16:51 34.94394 -85.23583 2452 ft 66 kts
2026-05-07 16:51 34.94848 -85.23452 2462 ft 69 kts
2026-05-07 16:52 34.95311 -85.23311 2414 ft 72 kts 12°
2026-05-07 16:52 34.95815 -85.23142 2340 ft 75 kts 13°
2026-05-07 16:52 34.96312 -85.22939 2131 ft 77 kts 14°
2026-05-07 16:52 34.96799 -85.22734 2010 ft 72 kts 14°
2026-05-07 16:53 34.97301 -85.22570 1825 ft 75 kts 12°
2026-05-07 16:53 34.97798 -85.22389 1740 ft 75 kts 14°
2026-05-07 16:53 34.98302 -85.22201 1592 ft 74 kts 13°
2026-05-07 16:53 34.98778 -85.22003 1507 ft 74 kts 13°
2026-05-07 16:54 34.99271 -85.21833 1389 ft 73 kts
2026-05-07 16:54 34.99719 -85.21676 1338 ft 66 kts 13°
2026-05-07 16:54 35.00141 -85.21516 1277 ft 56 kts
2026-05-07 16:54 35.00567 -85.21375 1105 ft 68 kts 11°
2026-05-07 16:55 35.00954 -85.21221 1030 ft 60 kts 11°
2026-05-07 16:55 35.01369 -85.21084 901 ft 64 kts 12°
2026-05-07 16:55 35.01764 -85.20934 814 ft 61 kts 13°
2026-05-07 16:55 35.02164 -85.20790 736 ft 60 kts 16°
2026-05-07 16:56 35.02550 -85.20650 680 ft 49 kts 17°
2026-05-07 16:56 35.02824 -85.20548 675 ft 34 kts 16°
2026-05-07 16:56 35.02940 -85.20399 674 ft 0 kts 107°
2026-05-07 16:58 35.02932 -85.20381 674 ft 8 kts 142°
2026-05-07 16:59 35.02863 -85.20370 674 ft 14 kts 127°
2026-05-07 16:59 35.02925 -85.20305 674 ft 20 kts 20°
2026-05-07 16:59 35.02983 -85.20212 675 ft 8 kts 107°
2026-05-07 16:59 35.02982 -85.20208 675 ft 0 kts 108°